Date String (YYYY-MM-DD hh:mm:ss) UTC,Instrument flags,Ambient pressure (hPa),Sample flow (lpm),Bypass flow (lpm),Sample temperature (°C),Ambient temperature (°C),ASC tube jacket temperature (°C),LED temperature (°C),Box temperature (°C),Sample RH (%),Span deviation,Mass concentration (μg/m³),Mass concentration (μg/m³),Mass concentration (μg/m³)
DateTimeUTC,F1_M11,P_M11,Q1_M11,Q2_M11,T1_M11,T2_M11,T3_M11,T4_M11,T5_M11,U1_M11,ZSPAN_M11,X0_M11,X2_M11,X1_M11
2021-12-29 23:00:00,,0814.1,4.99,0.00,22.2,21.9,00.0,31.1,24.0,07.1,0000.0,0018.35,0003.85,0002.26
2021-12-29 23:01:00,,0814.4,5.02,0.00,22.3,22.8,00.0,31.2,24.2,07.1,0000.0,0018.36,0003.85,0002.27
2021-12-29 23:02:00,,0814.1,4.99,0.00,22.4,23.0,00.0,31.2,24.4,07.0,0000.0,0019.29,0003.90,0002.27
2021-12-29 23:03:00,,0814.0,5.01,0.00,22.5,22.8,00.0,31.3,24.4,07.0,0000.0,0018.44,0003.94,0002.25
2021-12-29 23:04:00,,0814.1,5.00,0.00,22.5,22.7,00.0,31.3,24.3,07.0,0000.0,0018.51,0003.97,0002.25
2021-12-29 23:05:00,,0814.4,4.99,0.00,22.5,22.5,00.0,31.3,24.3,07.0,0000.0,0017.97,0003.98,0002.24
2021-12-29 23:06:00,,0814.1,5.00,0.00,22.5,22.4,00.0,31.3,24.2,07.0,0000.0,0016.80,0003.94,0002.23
2021-12-29 23:07:00,,0814.2,4.99,0.00,22.5,22.3,00.0,31.3,24.2,07.0,0000.0,0016.66,0003.91,0002.21
2021-12-29 23:08:00,,0814.3,5.01,0.00,22.5,22.2,00.0,31.3,24.2,07.0,0000.0,0017.01,0003.89,0002.21
2021-12-29 23:09:00,,0814.1,5.00,0.00,22.5,22.2,00.0,31.4,24.3,07.0,0000.0,0016.39,0003.94,0002.22
2021-12-29 23:10:00,,0814.2,5.00,0.00,22.5,22.2,00.0,31.4,24.3,06.9,0000.0,0015.68,0003.95,0002.20
2021-12-29 23:11:00,,0814.2,5.02,0.00,22.6,22.1,00.0,31.4,24.3,06.9,0000.0,0015.05,0004.01,0002.20
2021-12-29 23:12:00,,0814.2,4.99,0.00,22.6,22.1,00.0,31.4,24.3,06.9,0000.0,0015.74,0004.01,0002.17
2021-12-29 23:13:00,,0814.2,5.01,0.00,22.6,22.1,00.0,31.4,24.3,06.9,0000.0,0015.95,0004.00,0002.17
2021-12-29 23:14:00,,0814.1,5.01,0.00,22.6,22.0,00.0,31.4,24.2,07.0,0000.0,0015.70,0004.01,0002.19
2021-12-29 23:15:00,,0814.2,4.99,0.00,22.5,22.0,00.0,31.4,24.2,07.0,0000.0,0014.60,0004.00,0002.19
2021-12-29 23:16:00,,0814.2,5.01,0.00,22.5,22.0,00.0,31.4,24.2,07.0,0000.0,0014.57,0003.98,0002.18
2021-12-29 23:17:00,,0814.6,5.00,0.00,22.5,22.0,00.0,31.4,24.2,07.0,0000.0,0014.87,0004.01,0002.18
2021-12-29 23:18:00,,0814.2,4.99,0.00,22.5,22.0,00.0,31.4,24.2,07.0,0000.0,0014.76,0004.01,0002.18
2021-12-29 23:19:00,,0814.1,5.01,0.00,22.5,22.0,00.0,31.5,24.2,07.0,0000.0,0014.48,0004.07,0002.17
2021-12-29 23:20:00,,0814.0,4.99,0.00,22.5,21.9,00.0,31.5,24.2,07.0,0000.0,0015.14,0004.09,0002.17
2021-12-29 23:21:00,,0814.2,5.00,0.00,22.5,21.9,00.0,31.5,24.2,06.9,0000.0,0015.29,0004.09,0002.17
2021-12-29 23:22:00,,0814.3,5.00,0.00,22.5,21.9,00.0,31.5,24.2,06.9,0000.0,0015.90,0004.08,0002.16
2021-12-29 23:23:00,,0814.3,5.01,0.00,22.5,21.9,00.0,31.5,24.2,06.9,0000.0,0015.53,0004.12,0002.17
2021-12-29 23:24:00,,0814.3,4.98,0.00,22.5,21.9,00.0,31.5,24.2,06.9,0000.0,0014.66,0004.12,0002.16
2021-12-29 23:25:00,,0814.1,5.01,0.00,22.5,21.8,00.0,31.5,24.2,06.9,0000.0,0014.38,0004.12,0002.17
2021-12-29 23:26:00,,0814.2,4.99,0.00,22.5,21.8,00.0,31.5,24.2,06.9,0000.0,0014.21,0004.12,0002.17
2021-12-29 23:27:00,,0814.1,5.01,0.00,22.5,21.8,00.0,31.5,24.2,06.9,0000.0,0014.16,0004.15,0002.18
2021-12-29 23:28:00,,0814.1,4.99,0.00,22.5,21.8,00.0,31.5,24.1,06.9,0000.0,0014.21,0004.16,0002.20
2021-12-29 23:29:00,,0814.1,5.01,0.00,22.5,21.8,00.0,31.5,24.1,06.9,0000.0,0015.39,0004.15,0002.19
2021-12-29 23:30:00,,0814.1,4.99,0.00,22.5,21.8,00.0,31.5,24.1,06.9,0000.0,0016.86,0004.10,0002.18
2021-12-29 23:31:00,,0814.4,5.01,0.00,22.4,21.7,00.0,31.4,24.1,06.9,0000.0,0016.91,0004.05,0002.16
2021-12-29 23:32:00,,0814.3,5.00,0.00,22.4,21.7,00.0,31.5,24.1,06.9,0000.0,0016.85,0004.04,0002.15
2021-12-29 23:33:00,,0814.4,4.99,0.00,22.4,21.7,00.0,31.4,24.1,06.9,0000.0,0016.27,0004.01,0002.14
2021-12-29 23:34:00,,0814.2,5.01,0.00,22.4,21.7,00.0,31.4,24.1,06.9,0000.0,0016.60,0003.97,0002.13
2021-12-29 23:35:00,,0814.1,4.99,0.00,22.4,21.7,00.0,31.4,24.1,06.9,0000.0,0017.22,0003.99,0002.13
2021-12-29 23:36:00,,0814.2,5.00,0.00,22.4,21.7,00.0,31.4,24.1,06.9,0000.0,0018.00,0003.94,0002.10
2021-12-29 23:37:00,,0814.3,5.01,0.00,22.4,21.7,00.0,31.4,24.1,06.9,0000.0,0018.05,0003.91,0002.08
2021-12-29 23:38:00,,0814.4,5.00,0.00,22.4,21.7,00.0,31.4,24.1,06.9,0000.0,0018.60,0003.91,0002.06
2021-12-29 23:39:00,,0814.3,5.00,0.00,22.4,21.7,00.0,31.4,24.1,06.9,0000.0,0018.68,0003.89,0002.04
2021-12-29 23:40:00,,0814.3,5.01,0.00,22.4,21.7,00.0,31.4,24.1,06.9,0000.0,0018.13,0003.85,0002.01
2021-12-29 23:41:00,,0814.3,5.00,0.00,22.4,21.7,00.0,31.4,24.1,06.9,0000.0,0017.98,0003.87,0002.00
2021-12-29 23:42:00,,0814.3,4.99,0.00,22.4,21.7,00.0,31.4,24.1,06.9,0000.0,0017.83,0003.91,0002.00
2021-12-29 23:43:00,,0814.3,5.02,0.00,22.4,21.7,00.0,31.4,24.1,06.9,0000.0,0018.14,0003.91,0002.00
2021-12-29 23:44:00,,0814.4,4.98,0.00,22.4,21.7,00.0,31.4,24.1,06.9,0000.0,0018.02,0003.89,0002.01
2021-12-29 23:45:00,,0814.4,5.00,0.00,22.4,21.7,00.0,31.4,24.1,06.9,0000.0,0017.11,0003.83,0002.00
2021-12-29 23:46:00,,0814.4,4.99,0.00,22.4,21.7,00.0,31.4,24.1,06.9,0000.0,0016.85,0003.78,0001.99
2021-12-29 23:47:00,,0814.4,5.00,0.00,22.4,21.7,00.0,31.4,24.1,06.9,0000.0,0015.80,0003.83,0002.01
2021-12-29 23:48:00,,0814.4,5.00,0.00,22.4,21.7,00.0,31.4,24.1,06.9,0000.0,0015.61,0003.87,0002.01
2021-12-29 23:49:00,,0814.4,5.00,0.00,22.4,21.7,00.0,31.4,24.1,06.9,0000.0,0014.88,0003.87,0002.02
2021-12-29 23:50:00,,0814.4,4.99,0.00,22.4,21.7,00.0,31.4,24.1,06.9,0000.0,0015.47,0003.86,0002.01
2021-12-29 23:51:00,,0814.5,5.01,0.00,22.4,21.6,00.0,31.4,24.0,06.9,0000.0,0016.04,0003.92,0002.03
2021-12-29 23:52:00,,0814.4,5.00,0.00,22.3,21.6,00.0,31.4,24.0,06.9,0000.0,0014.89,0003.94,0002.01
2021-12-29 23:53:00,,0814.5,5.01,0.00,22.3,21.6,00.0,31.4,24.0,06.9,0000.0,0014.63,0003.96,0002.01
2021-12-29 23:54:00,,0814.5,5.01,0.00,22.3,21.6,00.0,31.4,24.0,06.9,0000.0,0014.14,0003.95,0002.02
2021-12-29 23:55:00,,0814.5,5.00,0.00,22.3,21.5,00.0,31.3,24.0,06.9,0000.0,0015.29,0003.98,0002.00
2021-12-29 23:56:00,,0814.6,5.00,0.00,22.3,21.5,00.0,31.3,23.9,06.9,0000.0,0016.12,0004.04,0001.99
2021-12-29 23:57:00,,0814.5,4.99,0.00,22.3,21.9,00.0,31.4,24.1,06.9,0000.0,0015.89,0004.09,0001.98
2021-12-29 23:58:00,,0814.6,5.01,0.00,22.5,22.6,00.0,31.4,24.3,06.9,0000.0,0016.21,0004.10,0001.97
2021-12-29 23:59:00,,0814.9,5.00,0.00,22.6,23.2,00.0,31.4,24.6,06.8,0000.0,0016.36,0004.07,0001.97
